Location: Heilwood
(40.6210°N, 78.9150°W)
Time: 08:55:51
(UTC-05:00)

Daily predictions for brighter satellites

Satellite Brightness Start Highest point End
(mag) Time Altitude Azimuth Time Altitude Azimuth Time Altitude Azimuth
Lacrosse 5 2.8 17:15:58 10° WSW 17:20:48 44° NW 17:25:38 10° NE
OE (NEXTSAT) 4.4 17:20:39 10° WNW 17:24:09 63° NNE 17:27:39 10° ESE
CENTAUR R/B 2.6 17:18:47 10° SSW 17:24:36 61° ESE 17:31:14 10° NE
Aureole 3 4.1 17:20:34 10° N 17:24:47 49° E 17:30:06 10° SSE
COSMO-SKYMED 1 4.0 17:22:03 10° NE 17:25:05 18° E 17:28:05 10° SE
YAOGAN 1 3.4 17:24:19 10° SE 17:28:02 29° ENE 17:31:45 10° N
Cosmos 1461 3.3 17:24:25 10° NNW 17:28:59 55° NE 17:33:38 10° SE
DNEPR-1 R/B 3.8 17:25:19 10° SW 17:29:47 68° NW 17:34:00 10° NNE
CORIOLIS 4.3 17:26:10 10° SSE 17:31:27 54° ENE 17:36:45 10° N
Cosmos 2173 Rocket 4.4 17:26:02 10° SSW 17:32:05 68° W 17:38:13 10° N
Meteor 1-28 Rocket 3.5 17:31:05 10° NNE 17:34:39 43° E 17:38:11 10° S
Cosmos 1707 Rocket 4.4 17:34:37 10° SSW 17:39:00 55° W 17:43:23 10° N
ERBS 3.9 17:36:45 10° NNW 17:39:15 19° NNE 17:41:13 12° ENE
Landsat 4 4.1 17:39:51 10° NNE 17:43:27 42° E 17:47:03 10° S
USA 116 4.2 17:38:55 10° NNE 17:43:31 53° E 17:47:34 10° S
Cosmos 1346 3.2 17:43:26 10° SSW 17:45:40 50° W 17:47:55 10° N
COSMOS 2455 3.1 17:40:48 10° S 17:46:35 53° ESE 17:52:25 10° NE
Cosmos 2082 Rocket 3.7 17:43:50 10° NNE 17:47:09 15° NE 17:49:08 13° ENE
Cosmos 1763 Rocket 4.1 17:43:29 10° N 17:48:14 34° ENE 17:52:53 10° SE
Cosmos 1437 2.9 17:45:37 10° S 17:48:40 46° E 17:51:44 10° NNE
AQUARIUS 4.2 17:45:24 10° SSE 17:49:53 89° WSW 17:54:25 10° NNW
IRS-1A Rocket 4.3 17:44:17 10° SSE 17:50:04 65° ENE 17:55:46 10° N
Cosmos 1814 Rocket 4.4 17:46:18 10° N 17:51:22 41° ENE 17:56:23 10° SE
BREEZE-M R/B 3.5 17:49:37 10° NW 17:51:59 26° NNE 17:53:57 17° ENE
CZ-4C R/B 4.3 17:49:08 10° N 17:53:02 15° NNE 17:56:06 12° NE
Meteor 1-14 Rocket 4.4 17:51:04 10° N 17:56:34 46° ENE 18:01:55 10° SSE
CSL-04 Rocket 4.2 17:51:58 10° S 17:57:10 61° WSW 18:02:27 10° NNW
Cosmos 371 Rocket 3.6 17:54:22 10° NNW 17:59:10 72° WSW 18:03:56 10° S
Cosmos 2233 Rocket 4.0 17:54:06 10° S 18:00:17 63° E 18:06:27 10° NNE
CZ-4 R/B 1.5 18:01:14 10° S 18:05:08 75° WSW 18:09:01 10° NNW
Ariane Rocket 3.8 18:00:09 10° S 18:05:08 56° W 18:10:09 10° NNW
Cosmos 2242 Rocket 4.0 18:01:55 10° SSW 18:06:28 67° W 18:11:00 10° N
Cosmos 304 Rocket 4.0 18:04:26 10° N 18:09:06 46° ENE 18:13:42 10° SE
Cosmos 1340 3.8 18:07:06 10° SSW 18:10:43 45° WNW 18:14:23 10° N
BREEZE-M DEB (TANK) 3.9 18:08:55 10° W 18:11:00 29° NNW 18:12:21 20° NNE
COSMOS 2406 3.5 18:06:52 10° NNW 18:12:37 73° WSW 18:18:17 10° SSE
SKYMED 2 3.5 18:09:03 10° NNE 18:13:22 62° E 18:17:39 10° S
Sich 1 Rocket 3.9 18:09:15 10° N 18:13:25 40° ENE 18:17:35 10° SSE
NOAA 12 4.3 18:09:43 10° SE 18:14:46 46° ENE 18:19:51 10° N
Cosmos 1908 Rocket 3.6 18:11:22 10° N 18:15:37 51° E 18:19:50 10° SSE
Cosmos 1486 Rocket 4.2 18:10:48 10° S 18:15:47 48° ESE 18:19:52 15° NNE
SPOT 3 Rocket 3.6 18:11:15 10° SSE 18:16:19 55° ENE 18:21:25 10° N
MOS 1 4.2 18:14:24 10° SSE 18:20:05 75° ENE 18:25:48 10° N
Cosmos 841 Rocket 3.7 18:15:01 10° N 18:20:08 48° ENE 18:25:13 10° SE
METEOR-M 4.0 18:15:34 10° SSE 18:20:54 84° ENE 18:26:16 10° NNW
Cosmos 1733 Rocket 3.8 18:16:35 10° NNW 18:20:55 55° W 18:25:15 10° S
CZ-2C R/B 4.3 18:17:21 10° N 18:21:44 57° WNW 18:26:08 10° SSW
Cosmos 972 Rocket 4.2 18:18:33 10° NNW 18:23:27 67° WSW 18:28:19 10° S
USA 234 3.3 18:18:04 16° NE 18:23:27 87° NW 18:30:01 10° SW
Meteor 1-26 Rocket 4.3 18:18:14 10° SSW 18:23:51 79° W 18:29:25 10° N
Cosmos 1844 Rocket 3.8 18:19:58 10° SW 18:25:21 44° WNW 18:30:44 10° NNE
Cosmos 540 Rocket 4.2 18:22:03 10° N 18:26:33 29° ENE 18:26:37 29° ENE
ERS-2 2.5 18:24:09 10° S 18:27:48 67° WSW 18:31:29 10° NNW
ALOS 2.1 18:34:52 10° SSE 18:39:31 78° ENE 18:44:12 10° N
Cosmos 972 4.3 18:36:43 10° NNW 18:41:51 90° E 18:46:42 10° SSE
Cosmos 2297 4.1 18:37:12 10° S 18:42:26 39° ESE 18:42:53 38° E
Cosmos 1072 Rocket 4.4 18:42:28 10° S 18:48:36 72° E 18:54:52 10° NNE
FENGYUN 3A 3.6 18:45:50 10° SSE 18:51:15 87° WSW 18:56:42 10° NNW
Cosmos 2278 Rocket 2.4 18:46:06 10° SSW 18:51:45 73° WNW 18:55:56 19° NNE
Cosmos 1833 Rocket 2.9 18:47:12 10° NNW 18:52:29 45° ENE 18:52:29 45° ENE
Thor Agena Rocket 3.6 18:53:14 50° ESE 18:53:14 50° ESE 18:57:58 10° S
Cosmos 2034 Rocket 4.1 18:48:26 10° SSE 18:54:35 54° E 18:59:15 18° NNE
Cosmos 1782 Rocket 3.4 18:55:15 10° N 18:59:36 88° W 19:03:57 10° S
Okean 1-7 2.9 18:55:20 10° S 18:59:42 89° W 19:00:27 61° N
COSMO-SKYMED 1 3.9 18:57:20 10° N 19:01:21 38° WNW 19:05:22 10° SW
Cosmos 1782 3.1 18:57:25 10° SSW 19:01:25 67° W 19:02:24 47° NNW
Cosmos 2221 Rocket 3.4 18:59:34 10° S 19:03:59 89° W 19:04:06 85° N
Lacrosse 5 4.0 19:01:58 10° NW 19:04:58 15° NNW 19:06:24 14° N
Meteor 2-6 Rocket 4.0 19:02:27 10° S 19:07:50 86° E 19:10:24 33° N
Cosmos 1606 3.6 19:07:16 10° SSW 19:10:55 46° W 19:11:16 44° WNW
CENTAUR R/B 4.1 19:10:21 10° W 19:15:46 30° NW 19:20:29 15° NNE
ERBS 4.4 19:12:44 10° NW 19:14:30 26° WNW 19:14:30 26° WNW
FengYun 1-2 T 4.1 19:19:24 29° S 19:22:20 84° WSW 19:27:54 10° NNW
Cosmos 1464 Rocket 4.3 19:19:32 10° SSW 19:25:35 64° W 19:31:42 10° N
Meteor 1-27 Rocket 4.1 19:20:03 10° S 19:24:34 55° S 19:24:34 55° S
Cosmos 2082 Rocket 2.4 19:26:19 10° NNW 19:31:03 63° NNW 19:31:03 63° NNW
Cosmos 1503 Rocket 4.4 19:30:16 10° SSW 19:35:16 61° W 19:35:16 61° W
CZ-4C R/B 3.6 19:36:28 10° NNW 19:41:18 39° N 19:41:18 39° N
USA 234 4.4 20:05:25 32° NNW 20:05:57 33° NNW 20:11:37 10° W
